EZY575B EGPH-EGAC

Flight info

Callsign EZY575B
Flight time 0h 38m
Altitude 16000
Route GOSAM P600 BLACA DCT MAGEE
Aircraft A320/M-SDE2E3FGHIJ1RWXYZ/LB1

Departure

Time 2026-04-21 20:28
Airport Edinburgh Airport (EGPH)

Arrival

Time 2026-04-21 21:06
Airport George Best Belfast City Airport (EGAC)
Time Latitude Longitude Altitude Speed Heading
2026-04-21 19:49 55.94742 -3.36875 113 ft 0 kts 269°
2026-04-21 20:19 55.94742 -3.36866 116 ft 2 kts 269°
2026-04-21 20:19 55.94741 -3.36832 113 ft 3 kts 275°
2026-04-21 20:19 55.94739 -3.36797 113 ft 3 kts 283°
2026-04-21 20:20 55.94733 -3.36763 113 ft 3 kts 301°
2026-04-21 20:20 55.94722 -3.36739 113 ft 3 kts 339°
2026-04-21 20:20 55.94714 -3.36734 114 ft 0 kts 356°
2026-04-21 20:23 55.94715 -3.36734 114 ft 0 kts 356°
2026-04-21 20:23 55.94754 -3.36750 112 ft 9 kts 334°
2026-04-21 20:23 55.94820 -3.36775 114 ft 13 kts
2026-04-21 20:23 55.94904 -3.36811 114 ft 12 kts 329°
2026-04-21 20:24 55.94915 -3.36926 116 ft 10 kts 241°
2026-04-21 20:24 55.94878 -3.37037 115 ft 15 kts 240°
2026-04-21 20:24 55.94805 -3.37252 114 ft 19 kts 234°
2026-04-21 20:24 55.94737 -3.37452 115 ft 20 kts 238°
2026-04-21 20:25 55.94664 -3.37667 116 ft 19 kts 239°
2026-04-21 20:25 55.94595 -3.37870 115 ft 20 kts 238°
2026-04-21 20:25 55.94519 -3.38096 114 ft 19 kts 239°
2026-04-21 20:25 55.94454 -3.38291 114 ft 18 kts 238°
2026-04-21 20:26 55.94393 -3.38469 113 ft 16 kts 238°
2026-04-21 20:26 55.94337 -3.38633 115 ft 13 kts 239°
2026-04-21 20:26 55.94292 -3.38765 114 ft 12 kts 239°
2026-04-21 20:26 55.94309 -3.38891 114 ft 15 kts 325°
2026-04-21 20:27 55.94393 -3.38974 114 ft 13 kts 354°
2026-04-21 20:27 55.94441 -3.38897 114 ft 6 kts 59°
2026-04-21 20:27 55.94475 -3.38799 113 ft 19 kts 58°
2026-04-21 20:27 55.94680 -3.38191 114 ft 92 kts 59°
2026-04-21 20:28 55.95112 -3.36916 193 ft 138 kts 59°
2026-04-21 20:28 55.95590 -3.35495 874 ft 134 kts 61°
2026-04-21 20:28 55.96111 -3.34089 1440 ft 145 kts 49°
2026-04-21 20:28 55.96927 -3.32766 1720 ft 170 kts 44°
2026-04-21 20:29 55.97869 -3.31274 2065 ft 195 kts 44°
2026-04-21 20:29 55.98954 -3.29564 2492 ft 221 kts 43°
2026-04-21 20:29 56.00342 -3.28140 3131 ft 244 kts 15°
2026-04-21 20:29 56.02082 -3.28466 3914 ft 266 kts 338°
2026-04-21 20:30 56.03486 -3.30671 4842 ft 279 kts 303°
2026-04-21 20:30 56.04040 -3.34018 5696 ft 290 kts 271°
2026-04-21 20:30 56.03744 -3.37594 5910 ft 293 kts 251°
2026-04-21 20:30 56.03016 -3.40982 6866 ft 291 kts 245°
2026-04-21 20:31 56.02216 -3.44312 7785 ft 293 kts 246°
2026-04-21 20:31 56.01461 -3.47725 8665 ft 297 kts 248°
2026-04-21 20:31 56.00787 -3.51234 9550 ft 301 kts 251°
2026-04-21 20:31 56.00183 -3.54841 10416 ft 305 kts 253°
2026-04-21 20:32 55.99616 -3.58580 10909 ft 323 kts 254°
2026-04-21 20:32 55.99043 -3.62586 11284 ft 341 kts 255°
2026-04-21 20:32 55.98462 -3.66740 11987 ft 347 kts 255°
2026-04-21 20:32 55.97875 -3.70946 12772 ft 351 kts 255°
2026-04-21 20:33 55.97275 -3.75188 13560 ft 354 kts 255°
2026-04-21 20:33 55.96665 -3.79467 14324 ft 358 kts 254°
2026-04-21 20:33 55.96042 -3.83788 15013 ft 361 kts 254°
2026-04-21 20:33 55.95406 -3.88138 15699 ft 364 kts 254°
2026-04-21 20:34 55.94762 -3.92521 16304 ft 368 kts 254°
2026-04-21 20:34 55.94093 -3.96929 16502 ft 368 kts 250°
2026-04-21 20:34 55.93038 -4.00971 16541 ft 352 kts 235°
2026-04-21 20:34 55.91521 -4.04305 16540 ft 343 kts 220°
2026-04-21 20:35 55.89648 -4.06883 16540 ft 339 kts 211°
2026-04-21 20:35 55.87699 -4.09251 16540 ft 339 kts 211°
2026-04-21 20:35 55.85751 -4.11626 16541 ft 339 kts 211°
2026-04-21 20:35 55.83805 -4.14001 16541 ft 339 kts 211°
2026-04-21 20:36 55.81863 -4.16379 16541 ft 339 kts 212°
2026-04-21 20:36 55.79920 -4.18757 16540 ft 339 kts 211°
2026-04-21 20:36 55.77977 -4.21133 16540 ft 339 kts 212°
2026-04-21 20:36 55.76038 -4.23529 16543 ft 340 kts 212°
2026-04-21 20:37 55.74104 -4.25934 16545 ft 340 kts 212°
2026-04-21 20:37 55.72167 -4.28348 16544 ft 340 kts 212°
2026-04-21 20:37 55.70235 -4.30757 16552 ft 340 kts 212°
2026-04-21 20:37 55.68300 -4.33162 16550 ft 340 kts 211°
2026-04-21 20:38 55.66365 -4.35560 16549 ft 339 kts 211°
2026-04-21 20:38 55.64456 -4.37922 16545 ft 339 kts 211°
2026-04-21 20:38 55.62521 -4.40315 16543 ft 339 kts 212°
2026-04-21 20:38 55.60588 -4.42701 16541 ft 339 kts 211°
2026-04-21 20:39 55.58652 -4.45086 16533 ft 339 kts 211°
2026-04-21 20:39 55.56715 -4.47468 16532 ft 339 kts 212°
2026-04-21 20:39 55.54779 -4.49844 16527 ft 339 kts 212°
2026-04-21 20:39 55.53139 -4.51852 16533 ft 339 kts 211°
2026-04-21 20:40 55.52555 -4.52564 16530 ft 339 kts 212°
2026-04-21 20:40 55.50614 -4.54934 16528 ft 339 kts 212°
2026-04-21 20:40 55.48673 -4.57309 16526 ft 339 kts 212°
2026-04-21 20:40 55.46734 -4.59683 16527 ft 339 kts 212°
2026-04-21 20:41 55.44793 -4.62055 16527 ft 340 kts 212°
2026-04-21 20:41 55.42852 -4.64422 16536 ft 340 kts 212°
2026-04-21 20:41 55.40907 -4.66786 16535 ft 339 kts 212°
2026-04-21 20:41 55.38967 -4.69145 16516 ft 339 kts 212°
2026-04-21 20:42 55.37023 -4.71501 16507 ft 339 kts 212°
2026-04-21 20:42 55.35082 -4.73852 16506 ft 339 kts 212°
2026-04-21 20:42 55.33140 -4.76202 16505 ft 339 kts 212°
2026-04-21 20:42 55.31182 -4.78491 16504 ft 337 kts 207°
2026-04-21 20:43 55.29101 -4.80361 16500 ft 336 kts 204°
2026-04-21 20:43 55.27010 -4.82190 16490 ft 336 kts 204°
2026-04-21 20:43 55.24918 -4.84021 16490 ft 336 kts 204°
2026-04-21 20:43 55.22827 -4.85856 16490 ft 336 kts 204°
2026-04-21 20:44 55.20737 -4.87691 16488 ft 336 kts 204°
2026-04-21 20:44 55.18646 -4.89526 16486 ft 336 kts 204°
2026-04-21 20:44 55.16558 -4.91361 16490 ft 336 kts 204°
2026-04-21 20:44 55.14467 -4.93191 16493 ft 336 kts 204°
2026-04-21 20:45 55.12379 -4.95017 16503 ft 335 kts 204°
2026-04-21 20:45 55.10295 -4.96841 16502 ft 335 kts 204°
2026-04-21 20:45 55.08218 -4.98656 16501 ft 334 kts 204°
2026-04-21 20:45 55.06140 -5.00464 16499 ft 333 kts 204°
2026-04-21 20:46 55.04067 -5.02264 16486 ft 333 kts 204°
2026-04-21 20:46 55.01997 -5.04060 16485 ft 332 kts 203°
2026-04-21 20:46 54.99928 -5.05854 16483 ft 332 kts 204°
2026-04-21 20:46 54.97857 -5.07650 16481 ft 332 kts 203°
2026-04-21 20:47 54.95788 -5.09441 16482 ft 332 kts 203°
2026-04-21 20:47 54.93720 -5.11228 16470 ft 332 kts 203°
2026-04-21 20:47 54.91655 -5.13025 16468 ft 332 kts 206°
2026-04-21 20:47 54.89752 -5.15328 16471 ft 336 kts 219°
2026-04-21 20:48 54.88203 -5.18337 16221 ft 334 kts 232°
2026-04-21 20:48 54.87120 -5.21870 15964 ft 332 kts 247°
2026-04-21 20:48 54.86367 -5.25631 15720 ft 328 kts 248°
2026-04-21 20:48 54.85619 -5.29356 15475 ft 325 kts 248°
2026-04-21 20:49 54.84872 -5.33034 15173 ft 322 kts 248°
2026-04-21 20:49 54.84122 -5.36693 14799 ft 322 kts 248°
2026-04-21 20:49 54.83369 -5.40360 14406 ft 323 kts 248°
2026-04-21 20:49 54.82616 -5.44032 14001 ft 323 kts 248°
2026-04-21 20:50 54.81863 -5.47703 13589 ft 323 kts 248°
2026-04-21 20:50 54.81108 -5.51361 13189 ft 322 kts 248°
2026-04-21 20:50 54.80356 -5.55003 12792 ft 321 kts 248°
2026-04-21 20:50 54.79520 -5.58566 12418 ft 317 kts 238°
2026-04-21 20:51 54.78292 -5.61678 12046 ft 310 kts 224°
2026-04-21 20:51 54.76725 -5.64178 11675 ft 304 kts 213°
2026-04-21 20:51 54.75063 -5.66433 11294 ft 303 kts 214°
2026-04-21 20:51 54.73413 -5.68683 10937 ft 301 kts 214°
2026-04-21 20:52 54.71770 -5.70925 10566 ft 300 kts 214°
2026-04-21 20:52 54.70132 -5.73154 10178 ft 299 kts 213°
2026-04-21 20:52 54.68522 -5.75342 9792 ft 297 kts 213°
2026-04-21 20:52 54.66883 -5.77568 9399 ft 295 kts 213°
2026-04-21 20:53 54.65276 -5.79751 9015 ft 293 kts 213°
2026-04-21 20:53 54.63685 -5.81914 8632 ft 290 kts 213°
2026-04-21 20:53 54.62110 -5.84054 8237 ft 286 kts 213°
2026-04-21 20:53 54.60550 -5.86165 7863 ft 284 kts 213°
2026-04-21 20:54 54.58997 -5.88263 7385 ft 285 kts 213°
2026-04-21 20:54 54.57417 -5.90396 6696 ft 287 kts 213°
2026-04-21 20:54 54.55881 -5.92475 6217 ft 283 kts 213°
2026-04-21 20:54 54.54335 -5.94558 5836 ft 280 kts 213°
2026-04-21 20:55 54.52802 -5.96619 5448 ft 278 kts 213°
2026-04-21 20:55 54.51287 -5.98658 5031 ft 276 kts 212°
2026-04-21 20:55 54.49777 -6.00686 4559 ft 275 kts 212°
2026-04-21 20:55 54.48283 -6.02695 4251 ft 266 kts 212°
2026-04-21 20:56 54.46903 -6.04566 4185 ft 241 kts 211°
2026-04-21 20:56 54.45619 -6.06304 4109 ft 233 kts 211°
2026-04-21 20:56 54.44353 -6.08001 4006 ft 226 kts 211°
2026-04-21 20:56 54.43141 -6.09627 3906 ft 216 kts 210°
2026-04-21 20:57 54.41987 -6.11180 3831 ft 208 kts 210°
2026-04-21 20:57 54.40855 -6.12707 3781 ft 206 kts 210°
2026-04-21 20:57 54.39728 -6.14229 3733 ft 206 kts 210°
2026-04-21 20:57 54.38619 -6.15796 3674 ft 210 kts 220°
2026-04-21 20:58 54.38018 -6.18101 3573 ft 222 kts 266°
2026-04-21 20:58 54.38442 -6.20604 3528 ft 221 kts 312°
2026-04-21 20:58 54.39655 -6.21985 3465 ft 205 kts 359°
2026-04-21 20:58 54.40993 -6.21771 3444 ft 188 kts 33°
2026-04-21 20:59 54.41952 -6.20443 3374 ft 173 kts 64°
2026-04-21 20:59 54.42457 -6.18604 3330 ft 170 kts 72°
2026-04-21 20:59 54.42923 -6.16731 3305 ft 171 kts 72°
2026-04-21 20:59 54.43402 -6.14858 3247 ft 171 kts 71°
2026-04-21 21:00 54.43895 -6.13001 3180 ft 170 kts 71°
2026-04-21 21:00 54.44384 -6.11158 3121 ft 169 kts 71°
2026-04-21 21:00 54.44869 -6.09318 3063 ft 169 kts 72°
2026-04-21 21:00 54.45350 -6.07479 3012 ft 169 kts 69°
2026-04-21 21:01 54.46123 -6.05908 2926 ft 179 kts 43°
2026-04-21 21:01 54.46808 -6.05106 2889 ft 180 kts 43°
2026-04-21 21:01 54.47834 -6.03890 2814 ft 179 kts 43°
2026-04-21 21:01 54.48861 -6.02685 2734 ft 175 kts 43°
2026-04-21 21:02 54.49812 -6.01565 2730 ft 157 kts 45°
2026-04-21 21:02 54.50691 -6.00515 2536 ft 151 kts 45°
2026-04-21 21:02 54.51531 -5.99513 2367 ft 143 kts 44°
2026-04-21 21:02 54.52344 -5.98583 2150 ft 136 kts 45°
2026-04-21 21:03 54.53089 -5.97673 1982 ft 130 kts 46°
2026-04-21 21:03 54.53823 -5.96788 1916 ft 128 kts 44°
2026-04-21 21:03 54.54555 -5.95913 1687 ft 126 kts 45°
2026-04-21 21:03 54.55278 -5.95046 1499 ft 127 kts 43°
2026-04-21 21:04 54.56005 -5.94193 1320 ft 126 kts 44°
2026-04-21 21:04 54.56732 -5.93316 1118 ft 127 kts 41°
2026-04-21 21:04 54.57460 -5.92451 923 ft 127 kts 41°
2026-04-21 21:04 54.58181 -5.91581 810 ft 127 kts 40°
2026-04-21 21:05 54.58909 -5.90700 601 ft 127 kts 41°
2026-04-21 21:05 54.59652 -5.89833 424 ft 129 kts 39°
2026-04-21 21:05 54.60379 -5.88963 271 ft 127 kts 41°
2026-04-21 21:05 54.61110 -5.88097 89 ft 127 kts 40°
2026-04-21 21:06 54.61790 -5.87275 20 ft 103 kts 34°
2026-04-21 21:06 54.62247 -5.86733 21 ft 59 kts 35°
2026-04-21 21:06 54.62405 -5.86514 22 ft 17 kts 64°
2026-04-21 21:06 54.62413 -5.86482 23 ft 0 kts 66°
2026-04-21 21:07 54.62458 -5.86441 19 ft 13 kts 340°
2026-04-21 21:07 54.62428 -5.86530 21 ft 13 kts 205°
2026-04-21 21:07 54.62316 -5.86654 20 ft 21 kts 217°
2026-04-21 21:07 54.62206 -5.86781 20 ft 18 kts 212°
2026-04-21 21:08 54.62096 -5.86907 16 ft 19 kts 214°
2026-04-21 21:08 54.61994 -5.87032 16 ft 18 kts 215°
2026-04-21 21:08 54.61899 -5.87144 19 ft 13 kts 214°
2026-04-21 21:08 54.61826 -5.87150 19 ft 12 kts 139°
2026-04-21 21:09 54.61776 -5.87031 21 ft 12 kts 124°
2026-04-21 21:09 54.61702 -5.87019 23 ft 12 kts 214°
2026-04-21 21:09 54.61635 -5.87099 21 ft 12 kts 214°
2026-04-21 21:09 54.61561 -5.87181 21 ft 8 kts 204°
2026-04-21 21:10 54.61516 -5.87157 21 ft 6 kts 156°
2026-04-21 21:10 54.61497 -5.87143 23 ft 0 kts 157°